DAL2397 KATL-KEWR

Flight info

Callsign DAL2397
Flight time 1h 46m
Altitude 35000
Route PLMMR3 BURGG Q22 UMBRE QUART PHLBO4
Aircraft B739/M-SDE2E3FGHIRWXY/LB1

Departure

Time 2026-05-06 13:00
Airport Hartsfield Jackson Atlanta International Airport (KATL)

Arrival

Time 2026-05-06 14:47
Airport Newark Liberty International Airport (KEWR)
Time Latitude Longitude Altitude Speed Heading
2026-05-06 11:54 33.63917 -84.43532 1005 ft 0 kts 268°
2026-05-06 11:54 33.63917 -84.43533 1005 ft 0 kts 268°
2026-05-06 12:45 33.63919 -84.43509 1005 ft 4 kts 257°
2026-05-06 12:46 33.63928 -84.43479 1005 ft 4 kts 231°
2026-05-06 12:46 33.63947 -84.43462 1005 ft 4 kts 187°
2026-05-06 12:46 33.63953 -84.43461 1005 ft 0 kts 180°
2026-05-06 12:51 33.63950 -84.43461 1005 ft 2 kts 180°
2026-05-06 12:51 33.63912 -84.43461 1005 ft 8 kts 180°
2026-05-06 12:52 33.63850 -84.43460 1005 ft 9 kts 179°
2026-05-06 12:52 33.63789 -84.43461 1005 ft 9 kts 181°
2026-05-06 12:52 33.63731 -84.43460 1005 ft 8 kts 178°
2026-05-06 12:52 33.63676 -84.43448 1005 ft 8 kts 146°
2026-05-06 12:53 33.63664 -84.43386 1005 ft 8 kts 88°
2026-05-06 12:53 33.63664 -84.43321 1005 ft 8 kts 89°
2026-05-06 12:53 33.63665 -84.43258 1005 ft 7 kts 90°
2026-05-06 12:53 33.63664 -84.43197 1005 ft 8 kts 90°
2026-05-06 12:54 33.63664 -84.43122 1005 ft 10 kts 90°
2026-05-06 12:54 33.63664 -84.43022 1005 ft 14 kts 90°
2026-05-06 12:54 33.63663 -84.42890 1005 ft 17 kts 90°
2026-05-06 12:54 33.63659 -84.42746 1005 ft 17 kts 96°
2026-05-06 12:55 33.63655 -84.42605 1006 ft 17 kts 89°
2026-05-06 12:55 33.63656 -84.42469 1006 ft 16 kts 90°
2026-05-06 12:55 33.63655 -84.42338 1006 ft 15 kts 90°
2026-05-06 12:55 33.63653 -84.42213 1006 ft 15 kts 98°
2026-05-06 12:56 33.63609 -84.42105 1006 ft 14 kts 120°
2026-05-06 12:56 33.63580 -84.41998 1006 ft 14 kts 89°
2026-05-06 12:56 33.63581 -84.41888 1005 ft 13 kts 90°
2026-05-06 12:56 33.63581 -84.41781 1005 ft 13 kts 90°
2026-05-06 12:57 33.63580 -84.41676 1005 ft 13 kts 90°
2026-05-06 12:57 33.63580 -84.41554 1005 ft 16 kts 90°
2026-05-06 12:57 33.63580 -84.41416 1004 ft 16 kts 90°
2026-05-06 12:57 33.63580 -84.41283 1005 ft 16 kts 89°
2026-05-06 12:58 33.63581 -84.41155 1005 ft 15 kts 89°
2026-05-06 12:58 33.63580 -84.41032 1005 ft 14 kts 91°
2026-05-06 12:58 33.63580 -84.40942 1005 ft 8 kts 91°
2026-05-06 12:58 33.63555 -84.40907 1006 ft 6 kts 172°
2026-05-06 12:59 33.63515 -84.40907 1006 ft 6 kts 182°
2026-05-06 12:59 33.63477 -84.40914 1006 ft 6 kts 213°
2026-05-06 12:59 33.63470 -84.40959 1006 ft 6 kts 269°
2026-05-06 12:59 33.63471 -84.41010 1005 ft 8 kts 272°
2026-05-06 13:00 33.63472 -84.41324 1005 ft 75 kts 270°
2026-05-06 13:00 33.63470 -84.42237 1006 ft 141 kts 270°
2026-05-06 13:00 33.63475 -84.43617 1099 ft 182 kts 269°
2026-05-06 13:00 33.63494 -84.45098 1977 ft 175 kts 269°
2026-05-06 13:01 33.63510 -84.46545 2726 ft 176 kts 268°
2026-05-06 13:01 33.63378 -84.48044 3245 ft 189 kts 250°
2026-05-06 13:01 33.62777 -84.49520 3516 ft 209 kts 240°
2026-05-06 13:01 33.62044 -84.51107 3907 ft 223 kts 240°
2026-05-06 13:02 33.61261 -84.52797 4309 ft 241 kts 241°
2026-05-06 13:02 33.60446 -84.54605 5028 ft 250 kts 242°
2026-05-06 13:02 33.59587 -84.56412 5978 ft 249 kts 234°
2026-05-06 13:02 33.58265 -84.57770 6772 ft 259 kts 212°
2026-05-06 13:03 33.56549 -84.58457 7522 ft 270 kts 192°
2026-05-06 13:03 33.54647 -84.58559 8340 ft 276 kts 185°
2026-05-06 13:03 33.52704 -84.58530 9067 ft 282 kts 184°
2026-05-06 13:03 33.50727 -84.58498 9818 ft 286 kts 184°
2026-05-06 13:04 33.48732 -84.58175 10606 ft 298 kts 165°
2026-05-06 13:04 33.46955 -84.56824 11443 ft 312 kts 140°
2026-05-06 13:04 33.45733 -84.54561 11807 ft 344 kts 112°
2026-05-06 13:04 33.45390 -84.51617 12004 ft 372 kts 92°
2026-05-06 13:05 33.45471 -84.48474 12216 ft 392 kts 89°
2026-05-06 13:05 33.45587 -84.45165 12704 ft 402 kts 90°
2026-05-06 13:05 33.45632 -84.41803 13374 ft 405 kts 91°
2026-05-06 13:05 33.45626 -84.38414 14000 ft 410 kts 91°
2026-05-06 13:06 33.45872 -84.34994 14554 ft 417 kts 73°
2026-05-06 13:06 33.47081 -84.31852 15224 ft 415 kts 52°
2026-05-06 13:06 33.48963 -84.29268 15933 ft 412 kts 41°
2026-05-06 13:06 33.50989 -84.26832 16617 ft 414 kts 39°
2026-05-06 13:07 33.53020 -84.24427 17234 ft 417 kts 39°
2026-05-06 13:07 33.55091 -84.21969 17870 ft 421 kts 39°
2026-05-06 13:07 33.57167 -84.19482 18486 ft 424 kts 39°
2026-05-06 13:07 33.59254 -84.16963 19056 ft 427 kts 39°
2026-05-06 13:08 33.61344 -84.14423 19629 ft 431 kts 39°
2026-05-06 13:08 33.63452 -84.11851 20191 ft 434 kts 39°
2026-05-06 13:08 33.65569 -84.09262 20755 ft 437 kts 39°
2026-05-06 13:08 33.67704 -84.06648 21285 ft 440 kts 39°
2026-05-06 13:09 33.69853 -84.04015 21793 ft 443 kts 39°
2026-05-06 13:09 33.72016 -84.01362 22285 ft 446 kts 39°
2026-05-06 13:09 33.74163 -83.98727 22764 ft 449 kts 39°
2026-05-06 13:09 33.76353 -83.96038 23231 ft 451 kts 40°
2026-05-06 13:10 33.78554 -83.93333 23685 ft 454 kts 40°
2026-05-06 13:10 33.80766 -83.90613 24122 ft 456 kts 40°
2026-05-06 13:10 33.82990 -83.87876 24563 ft 459 kts 40°
2026-05-06 13:10 33.85228 -83.85119 24976 ft 462 kts 40°
2026-05-06 13:11 33.87479 -83.82344 25382 ft 465 kts 39°
2026-05-06 13:11 33.89711 -83.79588 25823 ft 467 kts 39°
2026-05-06 13:11 33.91984 -83.76782 26205 ft 470 kts 39°
2026-05-06 13:11 33.94271 -83.73957 26578 ft 472 kts 39°
2026-05-06 13:12 33.96513 -83.71039 26936 ft 479 kts 44°
2026-05-06 13:12 33.98582 -83.67865 27301 ft 484 kts 47°
2026-05-06 13:12 34.00561 -83.64561 27677 ft 487 kts 49°
2026-05-06 13:12 34.02521 -83.61207 28003 ft 491 kts 49°
2026-05-06 13:13 34.04496 -83.57842 28317 ft 494 kts 49°
2026-05-06 13:13 34.06508 -83.54467 28640 ft 496 kts 48°
2026-05-06 13:13 34.08517 -83.51141 28958 ft 499 kts 48°
2026-05-06 13:13 34.10576 -83.47764 29285 ft 501 kts 47°
2026-05-06 13:14 34.12647 -83.44379 29607 ft 503 kts 47°
2026-05-06 13:14 34.14731 -83.40974 29905 ft 506 kts 47°
2026-05-06 13:14 34.16822 -83.37555 30270 ft 507 kts 47°
2026-05-06 13:15 34.21027 -83.30656 30163 ft 510 kts 47°
2026-05-06 13:15 34.22933 -83.27519 29918 ft 508 kts 47°
2026-05-06 13:15 34.25011 -83.24094 29668 ft 504 kts 47°
2026-05-06 13:15 34.27053 -83.20730 29420 ft 499 kts 47°
2026-05-06 13:16 34.29093 -83.17364 29173 ft 494 kts 47°
2026-05-06 13:16 34.32940 -83.11038 29073 ft 492 kts 47°
2026-05-06 13:17 34.37024 -83.04375 29070 ft 493 kts 47°
2026-05-06 13:17 34.41109 -82.97704 29061 ft 494 kts 47°
2026-05-06 13:18 34.45164 -82.91055 29066 ft 494 kts 47°
2026-05-06 13:18 34.49245 -82.84347 29054 ft 494 kts 47°
2026-05-06 13:19 34.53321 -82.77636 29064 ft 494 kts 47°
2026-05-06 13:19 34.57394 -82.70917 29062 ft 494 kts 47°
2026-05-06 13:20 34.61434 -82.64238 29055 ft 494 kts 48°
2026-05-06 13:20 34.65499 -82.57509 29046 ft 494 kts 48°
2026-05-06 13:21 34.69532 -82.50744 29046 ft 495 kts 49°
2026-05-06 13:21 34.73488 -82.43973 29049 ft 494 kts 49°
2026-05-06 13:22 34.77468 -82.37151 29046 ft 494 kts 49°
2026-05-06 13:22 34.81444 -82.30339 29051 ft 494 kts 49°
2026-05-06 13:23 34.85425 -82.23516 29047 ft 494 kts 49°
2026-05-06 13:23 34.89396 -82.16696 29038 ft 495 kts 49°
2026-05-06 13:24 34.93342 -82.09904 29039 ft 495 kts 49°
2026-05-06 13:24 34.97094 -82.03433 29034 ft 495 kts 49°
2026-05-06 13:25 35.01025 -81.96641 29040 ft 496 kts 49°
2026-05-06 13:25 35.04810 -81.90140 29041 ft 495 kts 47°
2026-05-06 13:26 35.08959 -81.83450 29034 ft 494 kts 46°
2026-05-06 13:26 35.13088 -81.76893 29042 ft 494 kts 46°
2026-05-06 13:27 35.17251 -81.70213 29034 ft 494 kts 47°
2026-05-06 13:27 35.21394 -81.63508 29029 ft 494 kts 47°
2026-05-06 13:28 35.25376 -81.57040 29027 ft 494 kts 47°
2026-05-06 13:28 35.29509 -81.50319 29030 ft 494 kts 47°
2026-05-06 13:29 35.33639 -81.43592 29023 ft 494 kts 47°
2026-05-06 13:29 35.37761 -81.36863 29029 ft 494 kts 47°
2026-05-06 13:30 35.41854 -81.30171 29018 ft 494 kts 47°
2026-05-06 13:30 35.45969 -81.23432 29020 ft 494 kts 47°
2026-05-06 13:31 35.50083 -81.16678 29018 ft 494 kts 47°
2026-05-06 13:31 35.54188 -81.09924 29016 ft 493 kts 47°
2026-05-06 13:32 35.58260 -81.03217 29019 ft 493 kts 47°
2026-05-06 13:32 35.62358 -80.96463 29027 ft 493 kts 47°
2026-05-06 13:33 35.66445 -80.89718 29026 ft 492 kts 47°
2026-05-06 13:33 35.70525 -80.82968 29029 ft 491 kts 48°
2026-05-06 13:34 35.74596 -80.76219 29024 ft 490 kts 48°
2026-05-06 13:34 35.78627 -80.69524 29015 ft 490 kts 48°
2026-05-06 13:35 35.82672 -80.62791 29019 ft 488 kts 48°
2026-05-06 13:35 35.86706 -80.56064 29019 ft 488 kts 48°
2026-05-06 13:36 35.90710 -80.49375 29017 ft 487 kts 48°
2026-05-06 13:36 35.94731 -80.42643 29010 ft 488 kts 48°
2026-05-06 13:37 35.98752 -80.35899 29014 ft 488 kts 49°
2026-05-06 13:37 36.02763 -80.29136 29009 ft 488 kts 49°
2026-05-06 13:38 36.06774 -80.22359 29018 ft 488 kts 49°
2026-05-06 13:38 36.10754 -80.15622 29020 ft 489 kts 49°
2026-05-06 13:39 36.14761 -80.08826 29009 ft 489 kts 49°
2026-05-06 13:39 36.18768 -80.02023 29008 ft 488 kts 49°
2026-05-06 13:40 36.22775 -79.95235 29008 ft 488 kts 49°
2026-05-06 13:40 36.26751 -79.88501 29008 ft 487 kts 49°
2026-05-06 13:41 36.30746 -79.81717 29010 ft 487 kts 49°
2026-05-06 13:41 36.34739 -79.74918 29009 ft 488 kts 49°
2026-05-06 13:42 36.38730 -79.68108 29008 ft 488 kts 49°
2026-05-06 13:42 36.42695 -79.61327 29012 ft 489 kts 49°
2026-05-06 13:43 36.46687 -79.54488 29008 ft 489 kts 49°
2026-05-06 13:43 36.50680 -79.47633 29010 ft 490 kts 49°
2026-05-06 13:44 36.54679 -79.40756 29006 ft 491 kts 49°
2026-05-06 13:44 36.58674 -79.33869 29013 ft 491 kts 49°
2026-05-06 13:45 36.62643 -79.27013 29010 ft 492 kts 49°
2026-05-06 13:45 36.68641 -79.16626 29007 ft 492 kts 49°
2026-05-06 13:46 36.72635 -79.09693 29010 ft 493 kts 49°
2026-05-06 13:46 36.76626 -79.02750 29001 ft 493 kts 49°
2026-05-06 13:47 36.80589 -78.95842 29005 ft 493 kts 49°
2026-05-06 13:47 36.84573 -78.88871 29000 ft 493 kts 49°
2026-05-06 13:48 36.88538 -78.81881 28999 ft 493 kts 49°
2026-05-06 13:48 36.92493 -78.74886 29001 ft 493 kts 49°
2026-05-06 13:49 36.96407 -78.67954 28997 ft 493 kts 49°
2026-05-06 13:49 37.00256 -78.61127 29001 ft 493 kts 49°
2026-05-06 13:50 37.04202 -78.54113 28990 ft 493 kts 49°
2026-05-06 13:50 37.08121 -78.47133 28988 ft 493 kts 49°
2026-05-06 13:51 37.11775 -78.39845 28765 ft 505 kts 65°
2026-05-06 13:51 37.12672 -78.35564 28533 ft 511 kts 79°
2026-05-06 13:51 37.13047 -78.31142 28304 ft 508 kts 83°
2026-05-06 13:52 37.13288 -78.26750 28044 ft 503 kts 85°
2026-05-06 13:52 37.13494 -78.22384 27793 ft 501 kts 85°
2026-05-06 13:52 37.13692 -78.18028 27546 ft 501 kts 85°
2026-05-06 13:52 37.13889 -78.13671 27300 ft 501 kts 85°
2026-05-06 13:53 37.14084 -78.09374 27057 ft 499 kts 85°
2026-05-06 13:53 37.14281 -78.05052 26803 ft 496 kts 85°
2026-05-06 13:53 37.14480 -78.00748 26555 ft 495 kts 85°
2026-05-06 13:53 37.14766 -77.96450 26291 ft 493 kts 77°
2026-05-06 13:54 37.15895 -77.92459 26052 ft 484 kts 55°
2026-05-06 13:54 37.17931 -77.89161 26045 ft 476 kts 40°
2026-05-06 13:54 37.20380 -77.86390 26012 ft 473 kts 32°
2026-05-06 13:54 37.23131 -77.84198 25988 ft 464 kts 20°
2026-05-06 13:55 37.26054 -77.82741 26001 ft 456 kts 12°
2026-05-06 13:55 37.29059 -77.81476 25986 ft 456 kts 11°
2026-05-06 13:55 37.32080 -77.80247 25988 ft 457 kts 11°
2026-05-06 13:55 37.35100 -77.79002 25990 ft 457 kts 12°
2026-05-06 13:56 37.38122 -77.77724 25988 ft 458 kts 12°
2026-05-06 13:56 37.41138 -77.76423 25984 ft 459 kts 12°
2026-05-06 13:56 37.44157 -77.75105 25983 ft 459 kts 12°
2026-05-06 13:56 37.47138 -77.73801 25980 ft 460 kts 12°
2026-05-06 13:57 37.50161 -77.72479 25982 ft 460 kts 12°
2026-05-06 13:57 37.53156 -77.71054 25973 ft 465 kts 19°
2026-05-06 13:57 37.55972 -77.68977 25993 ft 471 kts 27°
2026-05-06 13:57 37.58701 -77.66665 25981 ft 473 kts 28°
2026-05-06 13:58 37.61374 -77.64362 25979 ft 473 kts 28°
2026-05-06 13:58 37.64104 -77.62054 25979 ft 472 kts 27°
2026-05-06 13:58 37.66850 -77.59788 25981 ft 471 kts 26°
2026-05-06 13:58 37.69608 -77.57548 25982 ft 471 kts 26°
2026-05-06 13:59 37.72328 -77.55344 25981 ft 471 kts 26°
2026-05-06 13:59 37.75089 -77.53106 25982 ft 471 kts 26°
2026-05-06 13:59 37.77849 -77.50867 25981 ft 472 kts 26°
2026-05-06 13:59 37.80607 -77.48626 25981 ft 472 kts 26°
2026-05-06 14:00 37.83290 -77.46444 25974 ft 472 kts 26°
2026-05-06 14:00 37.86051 -77.44195 25972 ft 472 kts 26°
2026-05-06 14:00 37.88809 -77.41946 25972 ft 471 kts 26°
2026-05-06 14:00 37.91564 -77.39699 25972 ft 471 kts 26°
2026-05-06 14:01 37.94279 -77.37482 25971 ft 471 kts 26°
2026-05-06 14:01 37.97031 -77.35233 25967 ft 470 kts 26°
2026-05-06 14:01 37.99780 -77.32985 25963 ft 470 kts 26°
2026-05-06 14:01 38.02527 -77.30740 25962 ft 470 kts 26°
2026-05-06 14:02 38.05278 -77.28490 25957 ft 471 kts 26°
2026-05-06 14:02 38.08034 -77.26235 25960 ft 471 kts 27°
2026-05-06 14:02 38.10790 -77.23977 25958 ft 472 kts 27°
2026-05-06 14:02 38.13550 -77.21714 25953 ft 473 kts 27°
2026-05-06 14:03 38.16275 -77.19476 25953 ft 473 kts 27°
2026-05-06 14:03 38.19034 -77.17207 25951 ft 473 kts 27°
2026-05-06 14:03 38.21802 -77.14930 25948 ft 473 kts 27°
2026-05-06 14:03 38.24566 -77.12654 25949 ft 473 kts 27°
2026-05-06 14:04 38.27330 -77.10376 25956 ft 473 kts 27°
2026-05-06 14:04 38.30083 -77.08073 25960 ft 474 kts 29°
2026-05-06 14:04 38.32764 -77.05616 25952 ft 476 kts 31°
2026-05-06 14:04 38.35371 -77.03092 25953 ft 477 kts 32°
2026-05-06 14:05 38.37993 -77.00504 25946 ft 477 kts 32°
2026-05-06 14:05 38.40616 -76.97918 25944 ft 476 kts 32°
2026-05-06 14:05 38.43241 -76.95344 25945 ft 476 kts 32°
2026-05-06 14:05 38.45872 -76.92784 25943 ft 476 kts 32°
2026-05-06 14:06 38.48505 -76.90235 25945 ft 475 kts 32°
2026-05-06 14:06 38.51140 -76.87688 25941 ft 475 kts 32°
2026-05-06 14:06 38.53740 -76.85176 25936 ft 475 kts 32°
2026-05-06 14:06 38.56374 -76.82629 25937 ft 475 kts 32°
2026-05-06 14:07 38.59000 -76.80085 25941 ft 475 kts 32°
2026-05-06 14:07 38.61635 -76.77529 25942 ft 474 kts 32°
2026-05-06 14:07 38.64263 -76.74976 25938 ft 475 kts 32°
2026-05-06 14:07 38.66891 -76.72422 25935 ft 475 kts 32°
2026-05-06 14:08 38.69517 -76.69867 25934 ft 475 kts 32°
2026-05-06 14:08 38.72146 -76.67307 25938 ft 475 kts 32°
2026-05-06 14:08 38.74742 -76.64777 25936 ft 475 kts 32°
2026-05-06 14:08 38.77372 -76.62212 25936 ft 476 kts 32°
2026-05-06 14:09 38.80003 -76.59642 25933 ft 476 kts 32°
2026-05-06 14:09 38.82635 -76.57071 25935 ft 475 kts 32°
2026-05-06 14:09 38.85267 -76.54495 25936 ft 476 kts 32°
2026-05-06 14:09 38.87894 -76.51922 25940 ft 475 kts 32°
2026-05-06 14:10 38.90523 -76.49345 25944 ft 475 kts 32°
2026-05-06 14:10 38.93152 -76.46765 25946 ft 476 kts 32°
2026-05-06 14:10 38.95736 -76.44225 25945 ft 476 kts 32°
2026-05-06 14:10 38.98364 -76.41642 25944 ft 476 kts 32°
2026-05-06 14:11 39.00993 -76.39055 25944 ft 476 kts 32°
2026-05-06 14:11 39.03610 -76.36439 25945 ft 478 kts 34°
2026-05-06 14:11 39.06134 -76.33642 25944 ft 480 kts 37°
2026-05-06 14:11 39.08595 -76.30737 25948 ft 481 kts 38°
2026-05-06 14:12 39.11042 -76.27797 25945 ft 481 kts 38°
2026-05-06 14:12 39.13490 -76.24867 25943 ft 481 kts 38°
2026-05-06 14:12 39.15920 -76.21991 25946 ft 481 kts 38°
2026-05-06 14:12 39.18389 -76.19092 25944 ft 481 kts 38°
2026-05-06 14:13 39.20868 -76.16193 25940 ft 481 kts 37°
2026-05-06 14:13 39.23196 -76.13473 25936 ft 481 kts 37°
2026-05-06 14:13 39.25055 -76.11296 25932 ft 481 kts 38°
2026-05-06 14:13 39.27161 -76.08826 25929 ft 482 kts 38°
2026-05-06 14:14 39.29190 -76.06442 25924 ft 482 kts 38°
2026-05-06 14:14 39.31524 -76.03700 25927 ft 482 kts 38°
2026-05-06 14:14 39.33971 -76.00824 25927 ft 483 kts 38°
2026-05-06 14:14 39.36450 -75.97906 25926 ft 483 kts 38°
2026-05-06 14:15 39.38932 -75.94980 25927 ft 482 kts 38°
2026-05-06 14:15 39.41411 -75.92055 25926 ft 482 kts 38°
2026-05-06 14:15 39.43887 -75.89129 25925 ft 482 kts 38°
2026-05-06 14:15 39.46358 -75.86207 25924 ft 481 kts 38°
2026-05-06 14:16 39.48827 -75.83284 25888 ft 481 kts 38°
2026-05-06 14:16 39.51299 -75.80356 25516 ft 481 kts 38°
2026-05-06 14:16 39.53746 -75.77451 25026 ft 474 kts 38°
2026-05-06 14:16 39.56154 -75.74590 24476 ft 466 kts 38°
2026-05-06 14:17 39.58498 -75.71802 23886 ft 461 kts 38°
2026-05-06 14:17 39.60845 -75.69011 23297 ft 455 kts 39°
2026-05-06 14:17 39.63168 -75.66247 22712 ft 450 kts 39°
2026-05-06 14:17 39.65462 -75.63515 22135 ft 445 kts 39°
2026-05-06 14:18 39.67729 -75.60811 21562 ft 441 kts 39°
2026-05-06 14:18 39.69972 -75.58125 21039 ft 436 kts 40°
2026-05-06 14:18 39.72185 -75.55462 20476 ft 432 kts 40°
2026-05-06 14:18 39.74380 -75.52818 19913 ft 429 kts 40°
2026-05-06 14:19 39.76525 -75.50230 19362 ft 425 kts 40°
2026-05-06 14:19 39.78688 -75.47620 18803 ft 422 kts 40°
2026-05-06 14:19 39.80831 -75.45031 18252 ft 419 kts 41°
2026-05-06 14:19 39.82958 -75.42461 17711 ft 416 kts 41°
2026-05-06 14:20 39.85069 -75.39907 17166 ft 413 kts 41°
2026-05-06 14:20 39.87165 -75.37369 16624 ft 411 kts 41°
2026-05-06 14:20 39.89255 -75.34836 16084 ft 408 kts 41°
2026-05-06 14:20 39.91322 -75.32326 15543 ft 405 kts 41°
2026-05-06 14:21 39.93348 -75.29867 15026 ft 402 kts 42°
2026-05-06 14:21 39.95388 -75.27391 14501 ft 399 kts 42°
2026-05-06 14:21 39.97411 -75.24934 14031 ft 396 kts 42°
2026-05-06 14:21 39.99409 -75.22502 13588 ft 392 kts 42°
2026-05-06 14:22 40.01401 -75.20076 13070 ft 393 kts 42°
2026-05-06 14:22 40.03412 -75.17620 12566 ft 398 kts 42°
2026-05-06 14:22 40.05455 -75.15133 12040 ft 405 kts 43°
2026-05-06 14:22 40.07510 -75.12625 11491 ft 403 kts 43°
2026-05-06 14:23 40.09506 -75.10184 11273 ft 391 kts 43°
2026-05-06 14:23 40.11453 -75.07800 11098 ft 378 kts 43°
2026-05-06 14:23 40.13342 -75.05488 10866 ft 368 kts 43°
2026-05-06 14:23 40.15194 -75.03220 10519 ft 362 kts 43°
2026-05-06 14:24 40.17017 -75.00983 10185 ft 357 kts 43°
2026-05-06 14:24 40.18804 -74.98791 9928 ft 344 kts 43°
2026-05-06 14:24 40.20496 -74.96715 9930 ft 326 kts 43°
2026-05-06 14:24 40.22147 -74.94685 9374 ft 333 kts 43°
2026-05-06 14:25 40.23812 -74.92639 8992 ft 332 kts 43°
2026-05-06 14:25 40.25490 -74.90568 8645 ft 330 kts 44°
2026-05-06 14:25 40.26955 -74.88593 8353 ft 327 kts 47°
2026-05-06 14:25 40.28488 -74.86419 8081 ft 322 kts 48°
2026-05-06 14:26 40.29975 -74.84291 8012 ft 311 kts 47°
2026-05-06 14:26 40.31437 -74.82218 8008 ft 307 kts 47°
2026-05-06 14:26 40.32862 -74.80208 7992 ft 295 kts 47°
2026-05-06 14:26 40.34242 -74.78267 7901 ft 290 kts 47°
2026-05-06 14:27 40.35608 -74.76346 7653 ft 293 kts 47°
2026-05-06 14:27 40.37023 -74.74354 7404 ft 299 kts 47°
2026-05-06 14:27 40.38452 -74.72341 7184 ft 311 kts 47°
2026-05-06 14:27 40.39945 -74.70238 6953 ft 319 kts 47°
2026-05-06 14:28 40.41479 -74.68122 6700 ft 320 kts 41°
2026-05-06 14:28 40.43368 -74.66655 6430 ft 314 kts 15°
2026-05-06 14:28 40.45461 -74.65983 6202 ft 306 kts
2026-05-06 14:28 40.47545 -74.65455 6043 ft 305 kts
2026-05-06 14:29 40.49635 -74.64937 5994 ft 305 kts
2026-05-06 14:29 40.51714 -74.64410 5991 ft 304 kts
2026-05-06 14:29 40.53793 -74.63870 5999 ft 305 kts
2026-05-06 14:29 40.55852 -74.63324 5987 ft 306 kts
2026-05-06 14:30 40.57936 -74.62768 5991 ft 306 kts
2026-05-06 14:30 40.60025 -74.62209 5988 ft 307 kts
2026-05-06 14:30 40.62119 -74.61648 5986 ft 308 kts
2026-05-06 14:30 40.64218 -74.61084 5984 ft 308 kts
2026-05-06 14:31 40.66314 -74.60521 5976 ft 307 kts
2026-05-06 14:31 40.68409 -74.59958 5977 ft 306 kts
2026-05-06 14:31 40.70464 -74.59406 5976 ft 305 kts
2026-05-06 14:31 40.72545 -74.58847 5988 ft 305 kts
2026-05-06 14:32 40.74595 -74.58296 5975 ft 305 kts
2026-05-06 14:32 40.76668 -74.57738 5994 ft 303 kts
2026-05-06 14:32 40.78367 -74.57280 5995 ft 303 kts
2026-05-06 14:32 40.80432 -74.56723 5996 ft 302 kts
2026-05-06 14:33 40.82495 -74.56167 6003 ft 303 kts
2026-05-06 14:33 40.84555 -74.55554 5989 ft 306 kts 17°
2026-05-06 14:33 40.86158 -74.54345 6002 ft 309 kts 41°
2026-05-06 14:33 40.87448 -74.52117 6002 ft 306 kts 68°
2026-05-06 14:34 40.88242 -74.49516 6002 ft 307 kts 66°
2026-05-06 14:34 40.89300 -74.47052 6013 ft 309 kts 62°
2026-05-06 14:34 40.90353 -74.44615 6007 ft 311 kts 62°
2026-05-06 14:34 40.91416 -74.42119 5980 ft 312 kts 63°
2026-05-06 14:35 40.92486 -74.39608 5717 ft 315 kts 62°
2026-05-06 14:35 40.93552 -74.37091 5479 ft 312 kts 63°
2026-05-06 14:35 40.94610 -74.34605 5229 ft 308 kts 63°
2026-05-06 14:35 40.95659 -74.32158 4965 ft 304 kts 63°
2026-05-06 14:36 40.96701 -74.29746 4711 ft 300 kts 63°
2026-05-06 14:36 40.97738 -74.27353 4476 ft 299 kts 63°
2026-05-06 14:36 40.98759 -74.25002 4215 ft 298 kts 63°
2026-05-06 14:36 40.99792 -74.22620 4051 ft 301 kts 63°
2026-05-06 14:37 41.00833 -74.20232 4001 ft 294 kts 63°
2026-05-06 14:37 41.01574 -74.17814 3905 ft 276 kts 86°
2026-05-06 14:37 41.01526 -74.15357 3687 ft 263 kts 105°
2026-05-06 14:37 41.01207 -74.13015 3445 ft 259 kts 107°
2026-05-06 14:38 41.00856 -74.10685 3237 ft 255 kts 108°
2026-05-06 14:38 41.00521 -74.08427 3056 ft 244 kts 107°
2026-05-06 14:38 41.00038 -74.06396 2979 ft 216 kts 130°
2026-05-06 14:38 40.99035 -74.05233 2993 ft 181 kts 162°
2026-05-06 14:39 40.97901 -74.04653 3005 ft 172 kts 167°
2026-05-06 14:39 40.96781 -74.04122 2995 ft 171 kts 167°
2026-05-06 14:39 40.95652 -74.03588 2996 ft 173 kts 168°
2026-05-06 14:39 40.94539 -74.03046 3005 ft 172 kts 167°
2026-05-06 14:40 40.93415 -74.02505 2991 ft 171 kts 167°
2026-05-06 14:40 40.92304 -74.02089 2983 ft 163 kts 185°
2026-05-06 14:40 40.91295 -74.02541 3010 ft 155 kts 207°
2026-05-06 14:40 40.90312 -74.03115 3007 ft 156 kts 205°
2026-05-06 14:41 40.89334 -74.03697 2993 ft 156 kts 207°
2026-05-06 14:41 40.88354 -74.04304 2992 ft 156 kts 206°
2026-05-06 14:41 40.87372 -74.04922 2999 ft 158 kts 207°
2026-05-06 14:41 40.86386 -74.05548 2992 ft 160 kts 206°
2026-05-06 14:42 40.85389 -74.06182 3004 ft 161 kts 207°
2026-05-06 14:42 40.84385 -74.06822 2984 ft 157 kts 206°
2026-05-06 14:42 40.83430 -74.07430 2923 ft 150 kts 207°
2026-05-06 14:42 40.82517 -74.08013 2743 ft 147 kts 207°
2026-05-06 14:43 40.81597 -74.08600 2554 ft 147 kts 207°
2026-05-06 14:43 40.80683 -74.09183 2354 ft 143 kts 207°
2026-05-06 14:43 40.79814 -74.09735 2187 ft 136 kts 208°
2026-05-06 14:43 40.78961 -74.10279 1997 ft 136 kts 209°
2026-05-06 14:44 40.78114 -74.10821 1821 ft 137 kts 208°
2026-05-06 14:44 40.77252 -74.11371 1641 ft 138 kts 208°
2026-05-06 14:44 40.76373 -74.11934 1455 ft 142 kts 207°
2026-05-06 14:45 40.74582 -74.13074 1076 ft 145 kts 206°
2026-05-06 14:45 40.73675 -74.13654 877 ft 146 kts 206°
2026-05-06 14:45 40.72763 -74.14237 692 ft 146 kts 206°
2026-05-06 14:45 40.71844 -74.14825 488 ft 147 kts 207°
2026-05-06 14:46 40.70925 -74.15405 290 ft 146 kts 207°
2026-05-06 14:46 40.70028 -74.15985 105 ft 144 kts 207°
2026-05-06 14:46 40.69146 -74.16549 23 ft 129 kts 205°
2026-05-06 14:46 40.68507 -74.16950 20 ft 52 kts 205°
2026-05-06 14:47 40.68295 -74.17131 21 ft 21 kts 228°
2026-05-06 14:47 40.68221 -74.17260 22 ft 16 kts 236°
2026-05-06 14:47 40.68171 -74.17358 22 ft 9 kts 236°
2026-05-06 14:47 40.68159 -74.17381 22 ft 0 kts 236°
2026-05-06 14:48 40.68158 -74.17382 22 ft 1 kts 236°
2026-05-06 14:48 40.68146 -74.17397 21 ft 5 kts 216°
2026-05-06 14:48 40.68094 -74.17431 22 ft 11 kts 205°
2026-05-06 14:48 40.68029 -74.17473 22 ft 11 kts 206°
2026-05-06 14:49 40.67965 -74.17516 20 ft 8 kts 218°
2026-05-06 14:49 40.67956 -74.17549 22 ft 0 kts 275°
2026-05-06 14:49 40.67957 -74.17556 21 ft 2 kts 278°
2026-05-06 14:50 40.67966 -74.17588 19 ft 6 kts 295°
2026-05-06 14:50 40.67991 -74.17655 19 ft 9 kts 297°
2026-05-06 14:50 40.68020 -74.17732 20 ft 9 kts 296°
2026-05-06 14:50 40.68047 -74.17806 21 ft 9 kts 295°
2026-05-06 14:51 40.68074 -74.17876 21 ft 9 kts 303°
2026-05-06 14:51 40.68115 -74.17930 21 ft 8 kts 317°
2026-05-06 14:51 40.68153 -74.17985 21 ft 8 kts 303°
2026-05-06 14:51 40.68168 -74.18053 21 ft 8 kts 275°
2026-05-06 14:52 40.68172 -74.18128 23 ft 9 kts 274°
2026-05-06 14:52 40.68177 -74.18208 21 ft 9 kts 274°
2026-05-06 14:52 40.68181 -74.18288 21 ft 9 kts 274°
2026-05-06 14:52 40.68184 -74.18329 21 ft 0 kts 274°
2026-05-06 14:55 40.68184 -74.18333 21 ft 2 kts 274°
2026-05-06 14:56 40.68186 -74.18365 21 ft 5 kts 275°
2026-05-06 14:56 40.68191 -74.18420 21 ft 6 kts 276°
2026-05-06 14:56 40.68195 -74.18473 21 ft 6 kts 276°
2026-05-06 14:56 40.68192 -74.18525 21 ft 6 kts 250°
2026-05-06 14:57 40.68172 -74.18574 22 ft 8 kts 240°
2026-05-06 14:57 40.68156 -74.18640 21 ft 8 kts 272°
2026-05-06 14:57 40.68167 -74.18709 21 ft 7 kts 282°
2026-05-06 14:57 40.68173 -74.18747 22 ft 0 kts 282°